K8RLH Weather Reports


Display with metric or nautical units.
time (UTC)temp
F
wind
direction
speed
MPH
gust
MPH
rain 1hr
in
rain 24hr
in
rain mn
in
humidity
%
barometer
mb
20260906064723 73 169 0.0 0.0 0.00 0.00 0.00 93 1013.7
20260906064218 73 170 0.0 0.0 0.00 0.00 0.00 93 1013.5
20260906063713 73 171 0.0 0.0 0.00 0.00 0.00 93 1013.6
20260906063209 73 171 0.0 0.0 0.00 0.00 0.00 93 1013.7
20260906062704 73 171 0.0 0.0 0.00 0.00 0.00 92 1014.0
20260906062203 73 171 0.0 0.0 0.00 0.00 0.00 92 1014.0
20260906061659 73 156 0.0 0.0 0.00 0.00 0.00 92 1014.4
20260906061155 73 156 0.0 0.0 0.00 0.00 0.00 92 1014.5
20260906060651 73 156 0.0 0.0 0.00 0.00 0.00 92 1014.4
20260906060148 73 156 0.0 0.0 0.00 0.00 0.00 91 1014.6
20260906055643 73 156 0.0 0.0 0.00 0.00 0.00 91 1014.6
20260906055138 73 157 0.0 0.0 0.00 0.00 0.00 91 1014.6
20260906054633 73 157 0.0 0.0 0.00 0.00 0.00 91 1014.7
20260906054128 73 157 0.0 0.0 0.00 0.00 0.00 91 1014.8
20260906053625 73 157 0.0 0.0 0.00 0.00 0.00 91 1014.8
20260906053120 73 156 0.0 0.0 0.00 0.00 0.00 90 1014.9
20260906052615 73 156 0.0 0.0 0.00 0.00 0.00 91 1014.9
20260906052112 73 155 0.0 0.0 0.00 0.00 0.00 91 1014.9
20260906051608 73 155 0.0 0.0 0.00 0.00 0.00 92 1014.9
20260906051103 73 3 0.0 0.0 0.00 0.00 0.00 91 1014.9
20260906050558 73 3 0.0 0.0 0.00 0.00 0.00 91 1014.9
20260906050053 73 2 0.0 0.0 0.00 0.00 0.00 91 1014.9
20260906045551 73 2 0.0 0.0 0.00 0.00 0.00 90 1014.9
20260906045047 73 2 0.0 0.0 0.00 0.00 0.00 90 1014.9
20260906044543 73 2 0.0 0.0 0.00 0.00 0.00 89 1014.9
20260906044038 74 2 0.0 0.0 0.00 0.00 0.00 89 1014.8
20260906043533 74 2 0.0 0.0 0.00 0.00 0.00 88 1014.7
20260906043030 74 2 0.0 0.0 0.00 0.00 0.00 88 1014.6
20260906042528 74 357 1.0 2.0 0.00 0.00 0.00 89 1014.6
20260906042023 73 83 1.0 1.0 0.00 0.00 0.00 89 1014.8
20260906041519 74 94 0.0 0.0 0.00 0.00 0.00 88 1014.9
20260906041019 74 94 0.0 0.0 0.00 0.00 0.00 88 1014.9
20260906040514 74 112 1.0 1.0 0.00 0.00 0.00 88 1014.9
20260906040010 74 113 0.0 0.0 0.00 0.05 0.05 88 1014.9
20260906035504 74 113 0.0 0.0 0.00 0.05 0.05 87 1014.9
20260906035000 74 113 0.0 0.0 0.00 0.05 0.05 87 1014.9
20260906034500 74 123 0.0 1.0 0.00 0.05 0.05 87 1014.9
20260906033955 74 143 0.0 0.0 0.00 0.05 0.05 86 1014.9
20260906033450 74 143 0.0 0.0 0.00 0.05 0.05 86 1014.9
20260906032946 74 141 0.0 0.0 0.00 0.05 0.05 85 1014.9
20260906032443 74 141 0.0 0.0 0.00 0.05 0.05 85 1014.9
20260906031942 75 165 0.0 0.0 0.00 0.05 0.05 84 1014.9
20260906031438 75 165 1.0 1.0 0.00 0.05 0.05 84 1014.9
20260906030933 75 163 0.0 1.0 0.00 0.05 0.05 84 1014.9
20260906030428 75 158 0.0 4.0 0.00 0.05 0.05 84 1014.9
20260906025922 75 219 0.0 0.0 0.00 0.05 0.05 84 1014.5
20260906025416 75 218 0.0 0.0 0.00 0.05 0.05 84 1014.5
20260906024915 75 219 0.0 1.0 0.00 0.05 0.05 84 1014.5
20260906024415 75 218 0.0 0.0 0.00 0.05 0.05 84 1014.9
20260906023910 74 218 0.0 0.0 0.00 0.05 0.05 84 1014.7
20260906023406 74 218 0.0 0.0 0.00 0.05 0.05 84 1014.7
20260906022901 75 218 0.0 0.0 0.00 0.05 0.05 84 1014.5
20260906022401 75 218 0.0 0.0 0.00 0.05 0.05 83 1014.8
20260906021857 75 218 0.0 0.0 0.00 0.05 0.05 82 1014.6
20260906021356 76 218 0.0 0.0 0.00 0.05 0.05 81 1015.2
20260906020851 76 218 0.0 0.0 0.00 0.05 0.05 80 1015.2
20260906020350 76 218 0.0 0.0 0.00 0.05 0.05 79 1015.2
20260906015845 76 248 1.0 1.0 0.00 0.05 0.05 79 1015.2
20260906015345 76 244 1.0 2.0 0.00 0.05 0.05 80 1015.2
20260906014845 76 247 1.0 1.0 0.00 0.05 0.05 79 1015.2
20260906014344 76 216 0.0 1.0 0.00 0.05 0.05 80 1015.2
20260906013841 76 214 2.0 2.0 0.00 0.05 0.05 81 1014.8
20260906013336 75 192 1.0 2.0 0.00 0.05 0.05 83 1014.8
20260906012832 76 150 1.0 1.0 0.00 0.05 0.05 83 1014.8
20260906012327 76 11 0.0 0.0 0.00 0.05 0.05 83 1014.8
20260906011826 76 11 0.0 0.0 0.00 0.05 0.05 83 1014.6
20260906011321 76 11 0.0 0.0 0.00 0.05 0.05 82 1014.5
20260906010817 76 11 0.0 0.0 0.00 0.05 0.05 82 1014.5
20260906010313 76 11 0.0 0.0 0.00 0.05 0.05 82 1014.5
20260906005808 77 11 0.0 0.0 0.00 0.05 0.05 82 1014.5
20260906005307 77 12 0.0 0.0 0.00 0.05 0.05 81 1014.6
20260906004806 77 12 0.0 0.0 0.00 0.05 0.05 80 1014.3
20260906004307 77 11 0.0 0.0 0.00 0.05 0.05 80 1014.2
20260906003802 77 11 0.0 1.0 0.00 0.05 0.05 79 1014.2
20260906003257 78 21 1.0 1.0 0.00 0.05 0.05 79 1013.9
20260906002753 78 20 0.0 0.0 0.00 0.05 0.05 79 1013.8
20260906002252 78 20 0.0 1.0 0.00 0.05 0.05 78 1013.8
20260906001748 78 54 0.0 0.0 0.00 0.05 0.05 77 1014.0
20260906001248 78 87 1.0 1.0 0.00 0.05 0.05 76 1013.8
20260906000743 79 129 0.0 0.0 0.00 0.05 0.05 76 1013.8
20260906000238 79 127 0.0 0.0 0.00 0.05 0.05 75 1013.9
20260905235733 79 127 0.0 0.0 0.00 0.05 0.05 75 1014.1
20260905235232 79 139 1.0 1.0 0.00 0.05 0.05 77 1014.1
20260905234728 79 125 1.0 1.0 0.00 0.05 0.05 76 1014.0
20260905234223 79 127 0.0 0.0 0.00 0.05 0.05 77 1013.8
20260905233719 80 127 0.0 0.0 0.00 0.05 0.05 76 1013.9
20260905233218 80 127 0.0 1.0 0.00 0.05 0.05 76 1013.9
20260905232713 80 123 0.0 0.0 0.00 0.05 0.05 76 1013.8
20260905232209 80 93 1.0 1.0 0.00 0.05 0.05 75 1013.8
20260905231704 80 24 0.0 1.0 0.00 0.05 0.05 74 1013.8
20260905231200 80 51 1.0 1.0 0.00 0.05 0.05 74 1013.6
20260905230655 80 109 0.0 0.0 0.00 0.05 0.05 75 1013.5
20260905230153 80 27 0.0 0.0 0.00 0.05 0.05 73 1013.6
20260905225653 80 16 0.0 0.0 0.00 0.05 0.05 74 1013.7
20260905225148 80 16 0.0 1.0 0.00 0.05 0.05 74 1013.8
20260905224647 81 5 0.0 0.0 0.00 0.05 0.05 73 1013.8
20260905224142 80 0 0.0 1.0 0.00 0.05 0.05 72 1013.7
20260905223639 80 2 0.0 0.0 0.00 0.05 0.05 72 1013.8
20260905223135 80 2 0.0 0.0 0.00 0.05 0.05 73 1013.8
20260905222630 81 7 0.0 1.0 0.00 0.05 0.05 72 1014.0
20260905222125 80 1 0.0 1.0 0.00 0.05 0.05 72 1013.7
20260905221621 80 8 0.0 1.0 0.00 0.05 0.05 72 1013.7
20260905221118 80 355 1.0 1.0 0.00 0.05 0.05 73 1013.6
20260905220613 80 346 1.0 1.0 0.00 0.05 0.05 72 1013.9
20260905220109 80 71 0.0 0.0 0.00 0.05 0.05 74 1013.8
20260905215608 80 26 0.0 2.0 0.00 0.05 0.05 74 1013.8
20260905215104 80 255 1.0 1.0 0.00 0.05 0.05 76 1013.7
20260905214600 80 240 0.0 2.0 0.00 0.05 0.05 76 1013.8
20260905214055 80 247 2.0 4.0 0.00 0.05 0.05 77 1014.0
20260905213550 80 275 2.0 3.0 0.00 0.05 0.05 77 1014.0
20260905213045 79 8 0.0 1.0 0.00 0.05 0.05 79 1014.0
20260905212545 79 6 1.0 2.0 0.00 0.05 0.05 79 1014.1
20260905212044 78 43 0.0 1.0 0.00 0.05 0.05 80 1014.2
20260905211540 78 90 0.0 1.0 0.00 0.05 0.05 79 1014.2
20260905211036 78 350 0.0 1.0 0.00 0.05 0.05 79 1014.2
20260905210532 78 14 0.0 1.0 0.00 0.05 0.05 81 1014.2
20260905210032 78 355 0.0 1.0 0.00 0.05 0.05 80 1014.2
20260905205531 78 247 1.0 2.0 0.00 0.05 0.05 79 1014.2
20260905205030 78 274 1.0 1.0 0.00 0.05 0.05 78 1014.3
20260905204525 78 192 0.0 1.0 0.00 0.05 0.05 79 1014.3
20260905204020 78 125 0.0 0.0 0.00 0.05 0.05 77 1014.3
20260905203515 77 125 0.0 0.0 0.00 0.05 0.05 79 1014.2
20260905203010 77 107 0.0 0.0 0.00 0.05 0.05 77 1014.2
20260905202511 77 103 1.0 1.0 0.00 0.05 0.05 77 1014.3
20260905202006 77 123 0.0 1.0 0.00 0.05 0.05 76 1014.1
20260905201501 77 112 1.0 3.0 0.00 0.05 0.05 77 1014.0
20260905201001 76 125 1.0 2.0 0.00 0.05 0.05 78 1014.1
20260905200457 76 131 2.0 4.0 0.00 0.05 0.05 78 1014.3
20260905195955 76 104 1.0 4.0 0.00 0.05 0.05 79 1014.7
20260905195450 75 125 2.0 7.0 0.05 0.05 0.05 79 1014.8
20260905194946 76 63 1.0 4.0 0.17 0.05 0.05 81 1014.7
20260905194445 77 71 1.0 2.0 0.17 0.03 0.03 79 1014.7
20260905193940 79 60 1.0 6.0 0.12 0.02 0.02 73 1014.5
20260905193440 83 311 3.0 4.0 0.00 0.00 0.00 66 1014.7
20260905192935 85 58 3.0 8.0 0.00 0.00 0.00 59 1014.5
20260905192431 87 46 3.0 7.0 0.00 0.00 0.00 59 1014.6
20260905191926 89 357 2.0 7.0 0.00 0.00 0.00 57 1014.7
20260905191420 95 359 4.0 8.0 0.00 0.00 0.00 51 1014.2
20260905190920 97 37 1.0 1.0 0.00 0.00 0.00 42 1013.6
20260905190417 97 48 1.0 3.0 0.00 0.00 0.00 44 1013.6
20260905185916 98 151 1.0 2.0 0.00 0.00 0.00 43 1013.5
20260905185412 99 61 2.0 4.0 0.00 0.00 0.00 42 1013.3
20260905184911 99 51 1.0 2.0 0.00 0.00 0.00 43 1013.3
20260905184411 99 101 1.0 3.0 0.00 0.00 0.00 43 1013.2
20260905183909 99 136 1.0 2.0 0.00 0.00 0.00 42 1013.5
20260905183404 99 148 1.0 2.0 0.00 0.00 0.00 42 1013.2
20260905182859 99 85 0.0 2.0 0.00 0.00 0.00 42 1013.4
20260905182358 98 32 2.0 6.0 0.00 0.00 0.00 42 1013.6
20260905181854 98 320 0.0 4.0 0.00 0.00 0.00 44 1013.7
20260905181354 98 113 1.0 3.0 0.00 0.00 0.00 44 1013.8
20260905180853 98 238 1.0 2.0 0.00 0.00 0.00 42 1014.1
20260905180349 98 57 1.0 3.0 0.00 0.00 0.00 42 1014.2
20260905175844 97 38 1.0 2.0 0.00 0.00 0.00 43 1014.2
20260905175343 97 51 2.0 3.0 0.00 0.00 0.00 43 1014.4
20260905174839 96 82 4.0 6.0 0.00 0.00 0.00 44 1014.5
20260905174334 96 164 2.0 2.0 0.00 0.00 0.00 44 1014.3
20260905173830 96 72 1.0 3.0 0.00 0.00 0.00 44 1014.5
20260905173326 96 50 2.0 3.0 0.00 0.00 0.00 46 1014.5
20260905172826 95 158 2.0 4.0 0.00 0.00 0.00 48 1014.6
20260905172324 96 169 2.0 3.0 0.00 0.00 0.00 47 1014.6
20260905171820 96 143 0.0 3.0 0.00 0.00 0.00 47 1014.4
20260905171317 96 116 1.0 3.0 0.00 0.00 0.00 47 1014.5
20260905170813 96 89 2.0 3.0 0.00 0.00 0.00 46 1014.6
20260905170308 96 246 2.0 3.0 0.00 0.00 0.00 47 1014.8
20260905165807 96 152 0.0 1.0 0.00 0.00 0.00 48 1014.8
20260905165306 96 67 1.0 3.0 0.00 0.00 0.00 48 1015.3
20260905164803 96 247 3.0 3.0 0.00 0.00 0.00 49 1015.3
20260905164258 96 168 0.0 1.0 0.00 0.00 0.00 49
20260905163753 95 134 0.0 2.0 0.00 0.00 0.00 50 1016.4
20260905163250 95 315 0.0 3.0 0.00 0.00 0.00 50 1016.4
20260905162746 95 114 0.0 2.0 0.00 0.00 0.00 49 1016.4
20260905162245 95 314 0.0 3.0 0.00 0.00 0.00 51 1016.4
20260905161740 94 349 1.0 3.0 0.00 0.00 0.00 51 1016.4
20260905161239 94 223 1.0 3.0 0.00 0.00 0.00 52 1016.4
20260905160737 94 206 2.0 2.0 0.00 0.00 0.00 52 1016.4
20260905160231 93 262 1.0 2.0 0.00 0.00 0.00 54 1016.4
20260905155727 94 269 2.0 3.0 0.00 0.00 0.00 51 1016.4
20260905155225 93 64 1.0 1.0 0.00 0.00 0.00 55 1016.4
20260905154720 92 348 2.0 2.0 0.00 0.00 0.00 56 1016.4
20260905154216 91 78 1.0 1.0 0.00 0.00 0.00 58 1016.4
20260905153711 92 289 1.0 4.0 0.00 0.00 0.00 57
20260905153206 91 174 1.0 1.0 0.00 0.00 0.00 59
20260905152701 91 170 0.0 1.0 0.00 0.00 0.00 59
20260905152155 91 272 2.0 3.0 0.00 0.00 0.00 59
20260905151650 90 351 1.0 7.0 0.00 0.00 0.00 61
20260905151146 90 131 0.0 3.0 0.00 0.00 0.00 61
20260905150641 89 41 0.0 2.0 0.00 0.00 0.00 62
20260905150139 88 223 1.0 2.0 0.00 0.00 0.00 64
20260905145638 88 261 3.0 4.0 0.00 0.00 0.00 64
20260905145137 89 255 5.0 6.0 0.00 0.00 0.00 63
20260905144632 89 239 4.0 4.0 0.00 0.00 0.00 63
20260905144131 88 353 0.0 2.0 0.00 0.00 0.00 65
20260905143626 87 251 2.0 4.0 0.00 0.00 0.00 66
20260905143125 88 269 4.0 6.0 0.00 0.00 0.00 66
20260905142624 87 246 0.0 3.0 0.00 0.00 0.00 66
20260905142119 87 234 1.0 2.0 0.00 0.00 0.00 67
20260905141618 86 79 0.0 3.0 0.00 0.00 0.00 69
20260905141116 86 253 4.0 4.0 0.00 0.00 0.00 68
20260905140616 86 256 0.0 2.0 0.00 0.00 0.00 70
20260905140115 85 13 3.0 3.0 0.00 0.00 0.00 70
20260905135610 85 246 1.0 3.0 0.00 0.00 0.00 71
20260905135105 84 237 1.0 3.0 0.00 0.00 0.00 72
20260905134600 84 239 1.0 3.0 0.00 0.00 0.00 73 1017.0
20260905134059 83 262 2.0 6.0 0.00 0.00 0.00 73 1017.0
20260905133554 83 212 2.0 4.0 0.00 0.00 0.00 76 1017.0
20260905133048 82 253 3.0 4.0 0.00 0.00 0.00 78 1017.0
20260905132549 82 219 1.0 3.0 0.00 0.00 0.00 78 1017.0
20260905132049 81 230 2.0 4.0 0.00 0.00 0.00 80 1017.0
20260905131544 81 207 2.0 3.0 0.00 0.00 0.00 81 1017.0
20260905131039 81 252 0.0 3.0 0.00 0.00 0.00 81 1017.0
20260905130538 80 253 2.0 3.0 0.00 0.00 0.00 81 1017.0
20260905130034 80 262 2.0 2.0 0.00 0.00 0.00 83 1017.0
20260905125533 80 250 2.0 3.0 0.00 0.00 0.00 84 1017.0
20260905125029 79 249 2.0 3.0 0.00 0.00 0.00 84 1017.0
20260905124525 79 248 1.0 4.0 0.00 0.00 0.00 85 1016.7
20260905124021 78 240 4.0 4.0 0.00 0.00 0.00 85 1016.7
20260905123517 78 235 2.0 3.0 0.00 0.00 0.00 86 1016.9
20260905123013 78 241 2.0 3.0 0.00 0.00 0.00 86 1016.7
20260905122508 77 228 2.0 2.0 0.00 0.00 0.00 88 1016.9
20260905122003 76 215 0.0 1.0 0.00 0.00 0.00 89 1016.7
20260905121457 76 234 0.0 2.0 0.00 0.00 0.00 90 1016.7
20260905120957 75 239 1.0 2.0 0.00 0.00 0.00 90 1016.8
20260905120451 75 233 2.0 2.0 0.00 0.00 0.00 91 1016.6
20260905115946 75 190 0.0 0.0 0.00 0.00 0.00 91 1016.4
20260905115446 75 189 0.0 0.0 0.00 0.00 0.00 92 1016.5
20260905114941 74 189 0.0 0.0 0.00 0.00 0.00 92 1016.5
20260905114440 74 190 0.0 0.0 0.00 0.00 0.00 92 1016.5
20260905113939 74 190 0.0 0.0 0.00 0.00 0.00 92 1016.4
20260905113434 74 190 0.0 0.0 0.00 0.00 0.00 92 1016.3
20260905112930 74 190 0.0 0.0 0.00 0.00 0.00 92 1016.3
20260905112425 74 190 0.0 0.0 0.00 0.00 0.00 92 1016.0
20260905111920 74 190 0.0 0.0 0.00 0.00 0.00 92 1016.1
20260905111419 74 190 0.0 1.0 0.00 0.00 0.00 92 1015.9
20260905110915 74 190 0.0 1.0 0.00 0.00 0.00 92 1016.0
20260905110414 74 189 0.0 1.0 0.00 0.00 0.00 92 1016.1
20260905105909 74 188 0.0 0.0 0.00 0.00 0.00 92 1015.9
20260905105409 74 188 0.0 0.0 0.00 0.00 0.00 92 1015.9
20260905104908 74 188 0.0 0.0 0.00 0.00 0.00 91 1015.7
20260905104405 74 188 0.0 0.0 0.00 0.00 0.00 91 1015.6
20260905103904 74 188 0.0 0.0 0.00 0.00 0.00 91 1015.6
20260905103400 74 188 0.0 0.0 0.00 0.00 0.00 91 1015.6
20260905102856 74 188 0.0 0.0 0.00 0.00 0.00 91 1015.6
20260905102352 74 184 0.0 0.0 0.00 0.00 0.00 91 1015.5
20260905101852 74 184 0.0 0.0 0.00 0.00 0.00 91 1015.5
20260905101350 74 184 0.0 0.0 0.00 0.00 0.00 90 1015.4
20260905100845 74 184 0.0 0.0 0.00 0.00 0.00 90 1015.5
20260905100341 75 184 0.0 0.0 0.00 0.00 0.00 90 1015.7
20260905095840 75 183 0.0 0.0 0.00 0.00 0.00 90 1015.8
20260905095340 75 183 0.0 0.0 0.00 0.00 0.00 89 1015.6
20260905094835 75 184 0.0 0.0 0.00 0.00 0.00 89 1015.6
20260905094331 75 195 0.0 0.0 0.00 0.00 0.00 89 1015.6
20260905093830 75 196 1.0 1.0 0.00 0.00 0.00 89 1015.6
20260905093326 75 193 1.0 1.0 0.00 0.00 0.00 89 1015.5
20260905092821 75 180 0.0 0.0 0.00 0.00 0.00 88 1015.6
20260905092321 75 179 0.0 0.0 0.00 0.00 0.00 88 1015.6
20260905091816 75 180 0.0 0.0 0.00 0.00 0.00 88 1015.5
20260905091316 75 172 1.0 1.0 0.00 0.00 0.00 88 1015.5
20260905090815 75 164 0.0 1.0 0.00 0.00 0.00 88 1015.4
20260905090311 75 164 0.0 1.0 0.00 0.00 0.00 88 1015.6
20260905085810 75 164 0.0 0.0 0.00 0.00 0.00 88 1015.7
20260905085310 75 164 0.0 0.0 0.00 0.00 0.00 88 1015.6
20260905084806 75 163 0.0 0.0 0.00 0.00 0.00 87 1015.8
20260905084305 75 163 0.0 0.0 0.00 0.00 0.00 87 1015.8
20260905083800 75 163 0.0 0.0 0.00 0.00 0.00 87 1015.9
20260905083256 75 163 0.0 0.0 0.00 0.00 0.00 87 1015.9
20260905082752 75 163 0.0 0.0 0.00 0.00 0.00 87 1015.6
20260905082248 76 163 0.0 0.0 0.00 0.00 0.00 87 1015.8
20260905081748 76 163 0.0 0.0 0.00 0.00 0.00 86 1015.8
20260905081243 76 163 0.0 0.0 0.00 0.00 0.00 85 1015.9
20260905080742 76 163 0.0 0.0 0.00 0.00 0.00 85 1015.7
20260905080236 77 194 0.0 0.0 0.00 0.00 0.00 84 1015.9
20260905075735 77 194 0.0 1.0 0.00 0.00 0.00 84 1015.9
20260905075234 77 222 1.0 1.0 0.00 0.00 0.00 85 1015.9
20260905074733 77 245 1.0 2.0 0.00 0.00 0.00 85 1015.9
20260905074230 77 238 1.0 1.0 0.00 0.00 0.00 84 1016.0
20260905073725 77 249 1.0 2.0 0.00 0.00 0.00 84 1016.0
20260905073220 77 199 0.0 1.0 0.00 0.00 0.00 84 1016.0
20260905072719 77 197 0.0 1.0 0.00 0.00 0.00 83 1015.8
20260905072215 77 194 0.0 1.0 0.00 0.00 0.00 83 1016.1
20260905071712 77 185 1.0 1.0 0.00 0.00 0.00 83 1016.0
20260905071208 77 174 0.0 1.0 0.00 0.00 0.00 82 1016.1
20260905070702 77 186 0.0 1.0 0.00 0.00 0.00 82 1016.1
20260905070158 77 175 0.0 0.0 0.00 0.00 0.00 82 1016.1
20260905065656 77 175 0.0 0.0 0.00 0.00 0.00 82 1016.4
20260905065151 77 175 0.0 0.0 0.00 0.00 0.00 81 1016.1